Hourly Data Report for September 04, 2017

All times are specified in Local Standard Time (LST). Add 1 hour to adjust for Daylight Saving Time where and when it is observed.

RESOLUTE BAY A
NUNAVUT

74°43'01.000" N
94°58'10.000" W
67.70 m
2403498
71924
YRB

Download Data

Hourly Data (September 2017)
Hourly Data Report for September 4, 2017
Temp Definition
°C
Dew Point Temp Definition
°C
Rel Hum Definition
%
Wind Dir Definition
10's deg

Wind Spd Definition
km/h
Visibility Definition
km
Stn Press Definition
kPa
Hmdx Definition


Wind Chill Definition


Weather Definition


TIME
00:00 Legend Double Dagger -1.0 -2.2 92 32 17 16.1 100.70   -6 Cloudy
01:00 Legend Double Dagger -1.1 -1.9 94 34 16 12.9 100.73   -6 LegendNANA
02:00 Legend Double Dagger -3.1 -4.0 93 1 19 16.1 100.77   -9 LegendNANA
03:00 Legend Double Dagger -3.2 -4.5 91 34 17 24.1 100.81   -9 Mostly Cloudy
04:00 Legend Double Dagger -4.1 -5.0 93 35 22 19.3 100.85   -11 LegendNANA
05:00 Legend Double Dagger -4.2 -5.7 89 33 12 24.1 100.85   -9 LegendNANA
06:00 Legend Double Dagger -4.3 -6.1 88 36 15 24.1 100.85   -10 Mainly Clear
07:00 Legend Double Dagger -4.3 -6.0 88 35 19 24.1 100.86   -10 LegendNANA
08:00 Legend Double Dagger -4.5 -6.0 89 36 28 24.1 100.88   -12 LegendNANA
09:00 Legend Double Dagger -4.2 -6.3 85 36 22 24.1 100.87   -11 Mostly Cloudy
10:00 Legend Double Dagger -3.7 -5.8 85 35 13 24.1 100.89   -9 LegendNANA
11:00 Legend Double Dagger -3.0 -5.7 81 33 12 24.1 100.88   -7 LegendNANA
12:00 Legend Double Dagger -2.6 -5.0 83 30 12 24.1 100.89   -7 Cloudy
13:00 Legend Double Dagger -2.0 -4.9 81 30 16 24.1 100.88   -7 LegendNANA
14:00 Legend Double Dagger -1.8 -4.9 79 32 18 24.1 100.89   -7 LegendNANA
15:00 Legend Double Dagger -1.7 -5.1 78 32 16 24.1 100.89   -7 Cloudy
16:00 Legend Double Dagger -1.6 -6.0 72 30 12 24.1 100.88   -6 LegendNANA
17:00 Legend Double Dagger -1.7 -4.7 80 30 12 24.1 100.86   -6 LegendNANA
18:00 Legend Double Dagger -2.6 -5.3 82 32 11 9.7 100.85   -7 Snow
19:00 Legend Double Dagger -2.9 -4.3 90 34 7 24.1 100.82   -6 Snow
20:00 Legend Double Dagger -3.1 -4.4 90 36 3 24.1 100.78   -4 Snow
21:00 Legend Double Dagger -2.8 -4.2 90 30 4 24.1 100.77   -4 Snow
22:00 Legend Double Dagger -1.8 -3.0 91 31 16 24.1 100.74   -7 Snow
23:00 Legend Double Dagger -1.5 -2.3 94 31 19 16.1 100.72   -7 Snow Showers

Notes on Data Quality.

Legend

  • E = Estimated
  • M = Missing
  • NA = Not Available
  • ‡ = Partner data that is not subject to review by the National Climate Archives
Date modified: